Weather History for KECS - September, 2013

Change the Weather History Date:

Thursday, September 19, 2013

  Actual Average (KCUT) Record (KCUT)
Temperature  
Mean Temperature 50 °F 53 °F  
Max Temperature 60 °F 66 °F 85 °F (1972)
Min Temperature 39 °F 39 °F 26 °F (1945)
Degree Days  
Heating Degree Days 16 12  
Month to date heating degree days 167  
Since 1 July heating degree days 321  
Cooling Degree Days 0 0  
Month to date cooling degree days 11  
Year to date cooling degree days 177  
Moisture  
Dew Point 35 °F    
Average Humidity 55    
Maximum Humidity 81    
Minimum Humidity 34    
Precipitation  
Precipitation 0.00 in 0.05 in 0.67 in (1946)
Month to date precipitation 1.11  
Year to date precipitation 16.03  
Sea Level Pressure  
Sea Level Pressure 30.11 in    
Wind  
Wind Speed 13 mph (NNW)    
Max Wind Speed 29 mph    
Max Gust Speed 36 mph    
T = Trace of Precipitation, MM = Missing Value Source: NWS Daily Summary

Daily Weather History Graph

Daily Weather History Graph

Search for Another Location

Airport or City:

Trip Planner

Search our weather history database for the weather conditions in past years. The results will help you decide how hot, cold, wet, or windy it might be!

Date:

Astronomy

Sep. 19, 2013 Rise Set
Actual Time 6:41 AM MDT 6:59 PM MDT
Civil Twilight 6:12 AM MDT 7:28 PM MDT
Nautical Twilight 5:38 AM MDT 8:02 PM MDT
Astronomical Twilight 5:03 AM MDT 8:36 PM MDT
Moon 6:56 PM MDT (9/19) 6:55 AM MDT (9/19)
Length of Visible Light 13h 15m
Length of Day
12h 18m
Full, 100% of the Moon is Illuminated
Sep 19
Full
Sep 26
Last Quarter
Oct 4
New
Oct 11
First Quarter
Oct 18
Full

Hourly Weather History & Observations

Time (MDT) Temp. Windchill Dew Point Humidity Pressure Visibility Wind Dir Wind Speed Gust Speed Precip Events Conditions
12:15 AM 53.6 °F - 37.4 °F 54% 29.95 in - NNW 10.4 mph - N/A   Clear
12:35 AM 51.8 °F - 37.4 °F 58% 29.95 in - NNW 9.2 mph - N/A   Clear
12:55 AM 51.8 °F - 37.4 °F 58% 29.95 in - NNW 15.0 mph 20.7 mph N/A   Clear
1:15 AM 51.8 °F - 37.4 °F 58% 29.97 in - NNW 12.7 mph - N/A   Clear
1:35 AM 51.8 °F - 39.2 °F 62% 29.97 in - NNW 13.8 mph 20.7 mph N/A   Clear
1:55 AM 50.0 °F - 39.2 °F 66% 29.98 in - NNW 12.7 mph - N/A   Clear
2:15 AM 50.0 °F - 41.0 °F 71% 29.98 in - NNW 12.7 mph - N/A   Clear
2:35 AM 50.0 °F - 41.0 °F 71% 29.99 in - NNW 13.8 mph 19.6 mph N/A   Clear
2:55 AM 50.0 °F - 41.0 °F 71% 30.00 in - NNW 10.4 mph 18.4 mph N/A   Clear
3:15 AM 50.0 °F - 41.0 °F 71% 30.01 in - NW 9.2 mph - N/A   Clear
3:35 AM 44.6 °F 39.7 °F 39.2 °F 81% 30.02 in - NNW 9.2 mph - N/A   Clear
3:55 AM 46.4 °F 42.9 °F 39.2 °F 76% 30.03 in - NW 6.9 mph - N/A   Clear
4:15 AM 46.4 °F 42.9 °F 39.2 °F 76% 30.03 in - NW 6.9 mph - N/A   Clear
4:35 AM 46.4 °F 42.4 °F 39.2 °F 76% 30.04 in - NW 8.1 mph - N/A   Clear
4:55 AM 46.4 °F 42.4 °F 37.4 °F 71% 30.04 in - NW 8.1 mph - N/A   Clear
5:15 AM 44.6 °F 39.7 °F 37.4 °F 76% 30.05 in - NW 9.2 mph - N/A   Clear
5:35 AM 44.6 °F 39.7 °F 37.4 °F 76% 30.06 in - NNW 9.2 mph - N/A   Clear
5:55 AM 46.4 °F 42.4 °F 39.2 °F 76% 30.06 in - NNW 8.1 mph - N/A   Clear
6:15 AM 46.4 °F 41.5 °F 39.2 °F 76% 30.07 in - NNW 10.4 mph - N/A   Clear
6:35 AM 46.4 °F 40.1 °F 39.2 °F 76% 30.07 in - NNW 15.0 mph - N/A   Clear
6:55 AM 46.4 °F 40.4 °F 37.4 °F 71% 30.08 in - NNW 13.8 mph - N/A   Clear
7:15 AM 46.4 °F 40.1 °F 37.4 °F 71% 30.08 in - NNW 15.0 mph 21.9 mph N/A   Clear
7:35 AM 46.4 °F 39.2 °F 37.4 °F 71% 30.08 in - NNW 18.4 mph 25.3 mph N/A   Clear
7:55 AM 46.4 °F 39.2 °F 37.4 °F 71% 30.09 in - NNW 18.4 mph 25.3 mph N/A   Clear
8:15 AM 46.4 °F 40.7 °F 37.4 °F 71% 30.09 in - NNW 12.7 mph 18.4 mph N/A   Clear
8:35 AM 48.2 °F - 37.4 °F 66% 30.10 in - NW 15.0 mph 21.9 mph N/A   Clear
8:55 AM 48.2 °F - 37.4 °F 66% 30.11 in - NNW 19.6 mph 25.3 mph N/A   Clear
9:15 AM 50.0 °F - 37.4 °F 62% 30.11 in - NNW 19.6 mph 27.6 mph N/A   Clear
9:35 AM 51.8 °F - 35.6 °F 54% 30.12 in - NNW 23.0 mph 32.2 mph N/A   Clear
9:55 AM 53.6 °F - 35.6 °F 51% 30.12 in - NNW 23.0 mph 27.6 mph N/A   Clear
10:15 AM 53.6 °F - 33.8 °F 47% 30.12 in - NNW 19.6 mph 29.9 mph N/A   Clear
10:35 AM 55.4 °F - 33.8 °F 44% 30.13 in - NNW 18.4 mph 27.6 mph N/A   Clear
10:55 AM 55.4 °F - 32.0 °F 41% 30.14 in - NNW 23.0 mph 28.8 mph N/A   Clear
11:15 AM 55.4 °F - 33.8 °F 44% 30.14 in - NNW 19.6 mph 28.8 mph N/A   Clear
11:35 AM 55.4 °F - 33.8 °F 44% 30.13 in - NNW 23.0 mph 35.7 mph N/A   Clear
11:55 AM 57.2 °F - 32.0 °F 38% 30.13 in - NNW 21.9 mph 32.2 mph N/A   Clear
12:15 PM 59.0 °F - 33.8 °F 39% 30.13 in - NNW 28.8 mph 34.5 mph N/A   Clear
12:35 PM 59.0 °F - 32.0 °F 36% 30.14 in - NW 24.2 mph 33.4 mph N/A   Clear
12:55 PM 59.0 °F - 32.0 °F 36% 30.14 in - NNW 23.0 mph 32.2 mph N/A   Clear
1:15 PM 60.8 °F - 32.0 °F 34% 30.14 in - NW 21.9 mph 31.1 mph N/A   Scattered Clouds
1:35 PM 60.8 °F - 32.0 °F 34% 30.14 in - NW 25.3 mph 32.2 mph N/A   Scattered Clouds
1:55 PM 59.0 °F - 32.0 °F 36% 30.14 in - NW 17.3 mph 29.9 mph N/A   Scattered Clouds
2:15 PM 59.0 °F - 32.0 °F 36% 30.15 in - NW 21.9 mph 32.2 mph N/A   Scattered Clouds
2:35 PM 59.0 °F - 32.0 °F 36% 30.15 in - NW 20.7 mph 31.1 mph N/A   Scattered Clouds
2:55 PM 59.0 °F - 32.0 °F 36% 30.15 in - NW 19.6 mph 32.2 mph N/A   Scattered Clouds
3:15 PM 59.0 °F - 32.0 °F 36% 30.15 in - NW 18.4 mph 27.6 mph N/A   Scattered Clouds
3:35 PM 59.0 °F - 32.0 °F 36% 30.14 in - NW 20.7 mph 29.9 mph N/A   Clear
3:55 PM 60.8 °F - 32.0 °F 34% 30.14 in - NW 16.1 mph 25.3 mph N/A   Scattered Clouds
4:15 PM 60.8 °F - 32.0 °F 34% 30.13 in - NW 18.4 mph 28.8 mph N/A   Scattered Clouds
4:35 PM 60.8 °F - 32.0 °F 34% 30.13 in - NW 18.4 mph 24.2 mph N/A   Clear
4:55 PM 59.0 °F - 32.0 °F 36% 30.13 in - NNW 18.4 mph 21.9 mph N/A   Scattered Clouds
5:15 PM 59.0 °F - 32.0 °F 36% 30.13 in - NW 18.4 mph 24.2 mph N/A   Scattered Clouds
5:35 PM 59.0 °F - 30.2 °F 34% 30.13 in - NW 20.7 mph 27.6 mph N/A   Scattered Clouds
5:55 PM 57.2 °F - 30.2 °F 36% 30.13 in - NW 18.4 mph 26.5 mph N/A   Clear
6:15 PM 57.2 °F - 30.2 °F 36% 30.14 in - NW 18.4 mph 26.5 mph N/A   Clear
6:35 PM 55.4 °F - 32.0 °F 41% 30.14 in - NW 15.0 mph 21.9 mph N/A   Clear
6:55 PM 53.6 °F - 32.0 °F 44% 30.14 in - NW 10.4 mph - N/A   Clear
7:15 PM 53.6 °F - 32.0 °F 44% 30.15 in - NNW 10.4 mph - N/A   Clear
7:35 PM 51.8 °F - 32.0 °F 47% 30.15 in - NNW 8.1 mph - N/A   Clear
7:55 PM 50.0 °F - 32.0 °F 50% 30.16 in - NNW 5.8 mph - N/A   Clear
8:15 PM 50.0 °F - 32.0 °F 50% 30.17 in - NNW 5.8 mph - N/A   Clear
8:35 PM 48.2 °F - 32.0 °F 54% 30.17 in - North 5.8 mph - N/A   Clear
8:55 PM 46.4 °F 44.3 °F 32.0 °F 57% 30.18 in - North 4.6 mph - N/A   Clear
9:15 PM 46.4 °F 45.2 °F 32.0 °F 57% 30.18 in - NNW 3.5 mph - N/A   Clear
9:35 PM 42.8 °F - 32.0 °F 66% 30.19 in - Calm Calm - N/A   Clear
9:55 PM 44.6 °F 43.1 °F 32.0 °F 61% 30.19 in - North 3.5 mph - N/A   Clear
10:15 PM 44.6 °F 43.1 °F 32.0 °F 61% 30.19 in - North 3.5 mph - N/A   Clear
10:35 PM 42.8 °F 40.1 °F 32.0 °F 66% 30.19 in - North 4.6 mph - N/A   Clear
10:55 PM 42.8 °F - 32.0 °F 66% 30.19 in - Calm Calm - N/A   Clear
11:15 PM 39.2 °F - 32.0 °F 75% 30.19 in - Calm Calm - N/A   Clear
11:35 PM 41.0 °F 37.1 °F 32.0 °F 70% 30.19 in - NNE 5.8 mph - N/A   Clear
11:55 PM 41.0 °F 35.8 °F 32.0 °F 70% 30.19 in - North 8.1 mph - N/A   Clear